Tabuk, Saudi Arabia

1:04 PM +03 on July 24, 2017 (GMT +0300)
Tabuk

Weather History for OETB - January, 2013

Change the Weather History Date:

Tuesday, January 8, 2013

  Actual Average Record
Temperature  
Mean Temperature 48 °F -  
Max Temperature 60 °F 63 °F 75 °F (2003)
Min Temperature 35 °F 39 °F 33 °F (2002)
Degree Days  
Heating Degree Days 18    
Moisture  
Dew Point 34 °F    
Average Humidity 53    
Maximum Humidity 84    
Minimum Humidity 29    
Precipitation  
Precipitation 0.00 in - - ()
Sea Level Pressure  
Sea Level Pressure 29.97 in    
Wind  
Wind Speed 9 mph ()    
Max Wind Speed 30 mph    
Max Gust Speed -    
Visibility 5.9 miles    
Events      
Averages and records for this station are not official NWS values.
T = Trace of Precipitation, MM = Missing Value Source: Averaged Metar Reports

Daily Weather History Graph

Daily Weather History Graph

Search for Another Location

Airport or City:

Trip Planner

Search our weather history database for the weather conditions in past years. The results will help you decide how hot, cold, wet, or windy it might be!

Date:

Astronomy

Jan. 08, 2013 Rise Set
Actual Time 7:26 AM +03 5:53 PM +03
Civil Twilight 7:01 AM +03 6:19 PM +03
Nautical Twilight 6:32 AM +03 6:48 PM +03
Astronomical Twilight 6:03 AM +03 7:17 PM +03
Moon 3:38 AM +03 (1/8) 2:35 PM +03 (1/8)
Length of Visible Light 11h 17m
Length of Day
10h 26m
Waning Crescent, 16% of the Moon is Illuminated
Jan 8
Waning Crescent
Jan 11
New
Jan 19
First Quarter
Jan 27
Full
Feb 3
Last Quarter

Hourly Weather History & Observations

Time (+03) Temp. Windchill Dew Point Humidity Pressure Visibility Wind Dir Wind Speed Gust Speed Precip Events Conditions
12:00 AM 49 °F - 36 °F 49% 30.00 in 6 mi SW 5.8 mph - -   Partly Cloudy
12:00 AM 48.2 °F - 35.6 °F 62% 30.01 in 6.2 mi SW 5.8 mph - N/A   Scattered Clouds
1:00 AM 48.2 °F - 35.6 °F 62% 30.01 in 6.2 mi SW 8.1 mph - N/A   Scattered Clouds
2:00 AM 46.4 °F 42.9 °F 35.6 °F 66% 30.01 in 6.2 mi SSW 6.9 mph - N/A   Scattered Clouds
3:00 AM 46 °F - 36 °F 57% 29.97 in 6 mi South 4.6 mph - -   Partly Cloudy
3:00 AM 46.4 °F 44.3 °F 35.6 °F 66% 29.98 in 6.2 mi South 4.6 mph - N/A   Scattered Clouds
4:00 AM 46.4 °F 43.5 °F 35.6 °F 66% 29.98 in 6.2 mi SW 5.8 mph - N/A   Scattered Clouds
5:00 AM 46.4 °F 44.3 °F 35.6 °F 66% 29.98 in 6.2 mi SW 4.6 mph - N/A   Scattered Clouds
6:00 AM 45 °F - 36 °F 60% 29.98 in 6 mi SW 4.6 mph - -   Partly Cloudy
6:00 AM 44.6 °F 42.2 °F 35.6 °F 71% 29.98 in 6.2 mi SW 4.6 mph - N/A   Scattered Clouds
7:00 AM 44.6 °F 43.1 °F 35.6 °F 71% 29.98 in 6.2 mi SSW 3.5 mph - N/A   Scattered Clouds
8:00 AM 46.4 °F 45.2 °F 33.8 °F 62% 29.98 in 6.2 mi WSW 3.5 mph - N/A   Mostly Cloudy
9:00 AM 49 °F - 34 °F 44% 30.01 in 6 mi SSW 4.6 mph - -   Mostly Cloudy
9:00 AM 50.0 °F - 33.8 °F 54% 30.01 in 6.2 mi SSW 4.6 mph - N/A   Mostly Cloudy
10:00 AM 51.8 °F - 32.0 °F 47% 30.01 in 6.2 mi WSW 6.9 mph - N/A   Mostly Cloudy
11:00 AM 55.4 °F - 32.0 °F 41% 30.01 in 6.2 mi SSW 20.7 mph - N/A   Mostly Cloudy
12:00 PM 35 °F - 32 °F 84% 29.97 in 6 mi SSW 20.7 mph - -  
12:00 PM 57.2 °F - 32.0 °F 38% 29.98 in 6.2 mi SSW 20.7 mph - N/A   Mostly Cloudy
1:00 PM 59.0 °F - 32.0 °F 36% 30.09 in 4.3 mi SSW 25.3 mph - N/A   Mostly Cloudy
2:00 PM 60.8 °F - 32.0 °F 34% 29.98 in 4.3 mi SSW 25.3 mph - N/A   Scattered Clouds
3:00 PM 60.8 °F - 32.0 °F 34% 29.89 in 4.3 mi SW 29.9 mph - N/A   Scattered Clouds
4:00 PM 60.8 °F - 32.0 °F 34% 29.89 in 4.3 mi SW 16.1 mph - N/A   Scattered Clouds
5:00 PM 59.0 °F - 32.0 °F 36% 29.92 in 5.0 mi SW 21.9 mph - N/A   Scattered Clouds
6:00 PM 55 °F - 32 °F 29% 29.90 in 6 mi WSW 20.7 mph - -   Partly Cloudy
6:00 PM 55.4 °F - 32.0 °F 41% 29.92 in 6.2 mi WSW 20.7 mph - N/A   Scattered Clouds
7:00 PM 53.6 °F - 33.8 °F 47% 29.92 in 6.2 mi SW 13.8 mph - N/A   Scattered Clouds
8:00 PM 51.8 °F - 35.6 °F 54% 29.92 in 6.2 mi SW 23.0 mph - N/A   Partly Cloudy
9:00 PM 50 °F - 37 °F 51% 29.94 in 6 mi SW 19.6 mph - -   Scattered Clouds
9:00 PM 50.0 °F - 37.4 °F 62% 29.95 in 6.2 mi SW 19.6 mph - N/A   Partly Cloudy
10:00 PM 50.0 °F - 35.6 °F 58% 29.95 in 6.2 mi SW 13.8 mph - N/A   Partly Cloudy
11:00 PM 50.0 °F - 35.6 °F 58% 29.95 in 6.2 mi SW 11.5 mph - N/A   Scattered Clouds